{"data":{"norad_id":53228,"epoch":"2026-05-25T02:27:03.715776Z","epoch_age_seconds":59444,"freshness":"FRESH","line1":"1 53228U 22084AR  26145.10212634 -.00007944  00000+0 -54648-3 0  9998","line2":"2 53228  97.4475 205.1229 0001875 124.3220 235.8185 15.05693735210812","mean_motion":15.05693735,"eccentricity":0.0001875,"inclination_deg":97.4475,"raan_deg":205.1229,"arg_perigee_deg":124.322,"mean_anomaly_deg":235.8185,"bstar":-0.00054648,"rev_number":21081,"period_min":95.636978923871,"perigee_km":548.07809563394,"apogee_km":550.67591338563,"semimajor_km":6927.5140045098,"source":"CELESTRAK","updated_at":"2026-05-25T13:38:17.357664Z"}}